OBJECT AD, 62404

Orbit data source: Space-Track

You're viewing an Uncataloged Satellite

Recently launched and/or uncataloged satellites may have evolving metadata. Metadata may include but not limited to: Owner, Maufacturer, Bus, Motor, and Mission.

OBJECT AD, 62404 is a satellite in LEO that was launched on Sat, 21 Dec 2024 UTC via an FALCON 9 launch vehicle from the Air Force Western Test Range (AFWTR). Unknown objects in Earth's orbit typically refer to objects detected orbiting the Earth but have not yet been identified or cataloged. These objects could be anything from previously untracked satellites, spent rocket stages, debris from satellite collisions, or even natural meteoroids temporarily captured by Earth's gravity.

Loading next visibility...
Identifier
62404, 2024-247AD
Orbit
LEO
Country
Flag of TBDTBD
Related business
None
Manufacturer
Unknown
Mission
Operational Commercial Communications
Bus & Motor
Unknown
Mass
Unknown
Launch date (UTC)
2024-12-21 (1 year ago)
Launch vehicle
FALCON 9
Launch site
Air Force Western Test Range (AFWTR)
Object type
Unknown
Shape & HBR
Box, 0.0 m
Radar Cross Section
0.004 m², Small (<0.1 m²)

Expand to show TLE details & history
Last TLE update: 19 hours ago

TLE from 19 hours ago
0 OBJECT AD
1 62404U 24247AD  26093.77558825  .00064958  00000-0  12885-2 0  9990
2 62404  44.9962 310.4600 0008689 197.9418 162.1166 15.46184038 71928
Epoch: 2026-04-03T18:36Z
TLE epoch observation values (Epoch: 2026-04-03T18:36:50.824Z)
Latitude
-0.00007°
Longitude
-160.8567°
Altitude
433.527 km
Speed
7.65 km/s
True Right ascension
20h 41m 50s
True Declination
0° 00' 00"
Sunlit
Object was in daylight at epoch
Visualization orbit readout
Latitude
Unknown
Longitude
Unknown
Altitude
Unknown
Speed
Unknown
Apparent Right ascension
Unknown
Apparent Declination
Unknown
Sunlit
N/A
Visualization observer readout
Local Sidereal Time
19:15:59
Azimuth
Unknown
Elevation
Unknown
Doppler factor
Unknown
Orbital elements
Apogee altitude
435.439 km
Perigee altitude
423.609 km
Semi-major axis
6,807.661 km
Eccentricity
0.00087
Inclination
44.9962°
RAAN
310.46°
Arg. of periapsis
197.9418°
True anomaly
162.14714°
Mean anomaly
162.1166°
Eccentric anomaly
162.13188°
Mean motion
3.86408 °/min
Orbital period
93.17 mins
BSTAR
0.0012885
Loading maneuver chart data...
Computing Atmospheric mass density...
Loading historical data...
Loading historical data...
Loading historical data...
Loading historical data...
Loading historical data...
Loading historical data...
Loading historical data...

Documentation

Showing up to 5 results
|